Theta_e
336 331 332 329 315 311 308 313 321 319 319 320 320 318 316 318 315 312 332 341 342 336 344 351 353 352 351 351 350 349 348 346 343 341 340 339 338 336 336 335 335 335 334 334 334 335 335 334 334
327 326 329 327 309 306 310 319 317 319 320 322 322 320 316 315 321 322 330 340 341 336 344 346 354 352 352 352 351 350 349 347 344 343 342 341 341 340 339 339 338 338 338 338 337 338 337 337 336
327 330 324 318 315 310 313 318 319 320 321 320 318 318 318 317 321 324 337 341 341 338 341 346 354 352 352 353 352 351 350 348 345 344 343 343 342 341 342 341 341 341 341 340 339 339 340 340 339
324 327 325 314 310 316 318 319 320 319 321 320 319 316 320 324 324 328 339 341 339 338 341 348 355 353 353 353 353 352 351 349 348 345 345 345 344 346 347 343 343 343 341 341 341 340 340 340 341
327 324 312 310 310 315 321 323 321 319 318 318 318 315 318 324 327 329 338 340 337 338 339 346 354 354 354 354 353 352 352 351 350 348 347 347 347 348 345 345 344 344 343 342 341 341 343 342 343
319 320 309 306 309 315 319 320 320 319 320 318 316 316 319 326 326 329 336 340 338 338 341 347 354 354 354 354 353 352 352 351 351 351 350 349 349 346 346 345 344 342 342 342 341 342 343 342 342
317 313 307 308 309 311 315 320 318 319 318 317 320 315 321 325 328 331 334 339 340 339 340 347 351 354 354 354 353 352 352 353 352 351 351 351 348 346 344 343 341 341 341 341 340 340 340 340 339
319 315 309 310 308 309 315 318 320 319 317 322 321 316 318 327 329 330 333 335 338 340 339 343 349 348 350 350 353 353 353 353 352 351 351 350 347 343 341 341 339 337 337 337 338 338 339 340 339
322 310 306 308 309 311 317 316 319 322 319 320 323 323 325 327 328 330 331 333 334 336 340 341 343 345 348 345 346 353 353 351 351 349 349 347 340 339 340 341 337 337 336 335 335 335 337 337 337
316 310 309 314 315 314 316 316 317 317 317 318 320 325 326 328 329 328 327 329 331 333 336 340 343 345 345 341 347 351 346 344 344 344 343 342 342 341 339 339 335 336 336 334 334 335 336 336 334
317 311 316 316 317 318 316 316 319 316 314 318 317 321 324 326 328 328 328 328 329 333 335 338 344 346 345 343 344 344 341 341 342 343 344 344 340 340 339 337 337 339 337 334 335 336 336 334 334
313 317 317 318 319 318 316 319 316 318 318 322 322 323 323 324 326 327 328 329 329 330 335 338 342 346 348 344 343 340 337 337 337 337 343 342 339 339 338 335 336 337 335 334 334 332 334 335 334
313 315 317 319 319 318 319 316 316 317 320 322 322 321 321 322 323 326 328 331 331 329 334 338 342 346 348 348 341 337 337 335 336 337 340 340 338 339 338 339 337 334 333 333 333 333 333 333 334
314 314 315 317 318 318 315 315 317 317 320 319 318 318 319 319 320 322 325 329 332 332 334 337 341 346 347 345 342 339 339 337 337 337 338 341 339 339 338 337 337 335 335 335 336 333 332 332 332
313 309 312 314 315 314 317 311 311 316 317 316 315 317 318 318 320 322 325 329 334 334 336 336 340 344 345 343 341 340 337 338 336 337 341 341 341 340 340 338 336 335 337 338 337 336 334 332 332
307 309 304 311 312 313 311 304 313 316 315 314 315 316 316 318 320 323 327 330 334 336 335 335 336 341 343 341 340 337 337 337 336 338 339 341 342 341 340 339 337 337 338 337 335 336 332 332 329
305 300 303 305 311 310 308 305 312 315 314 313 315 317 316 317 322 326 328 331 333 336 335 334 336 337 339 341 339 339 340 338 337 339 339 340 341 340 339 336 336 337 336 336 335 335 332 333 332
300 301 303 304 309 307 306 306 311 313 313 314 315 316 316 317 320 325 328 331 332 334 335 336 335 338 339 338 339 336 336 337 338 338 338 339 340 338 337 336 336 337 336 336 335 333 333 331 332
305 304 304 306 310 307 307 307 310 313 314 314 315 316 316 319 323 326 327 328 329 332 334 335 335 338 337 335 333 332 332 335 335 337 339 340 339 337 336 335 335 335 333 335 335 332 329 330 333
303 302 303 307 309 309 306 305 311 313 314 315 314 315 317 320 323 325 326 327 330 332 334 336 337 339 337 335 336 335 336 335 336 338 339 339 338 338 336 335 335 335 334 334 332 332 327 327 333
301 300 302 302 306 308 305 302 307 312 314 315 315 316 316 320 323 325 325 327 330 331 334 335 337 338 338 339 338 338 338 336 334 335 335 337 336 336 337 337 336 334 336 334 333 331 330 329 332
297 303 301 300 299 296 305 296 305 309 310 313 314 315 317 321 323 325 326 328 329 331 334 336 337 338 338 341 337 337 332 330 336 335 337 336 336 336 335 336 335 335 337 334 331 331 334 334 328
299 302 302 301 299 299 300 297 303 309 307 310 313 315 318 322 323 325 326 327 329 331 333 335 337 337 339 340 339 335 333 334 335 335 334 337 338 337 336 337 336 336 335 334 332 333 335 336 330
303 300 302 302 300 293 298 298 299 305 308 311 314 314 319 322 324 325 327 328 329 331 333 334 336 337 339 338 338 335 334 333 332 333 334 337 339 338 336 335 337 337 335 333 332 335 335 335 333
301 298 293 291 292 292 302 299 301 309 310 311 311 315 321 323 324 324 325 326 328 329 331 333 335 335 337 336 336 334 335 335 334 332 335 333 333 337 336 337 337 337 335 334 334 336 335 336 333
298 299 293 288 291 295 302 296 302 310 312 314 314 315 321 323 324 325 325 327 327 329 331 332 333 333 335 335 334 335 335 335 334 335 335 335 335 338 338 337 337 336 335 334 335 334 336 336 335
298 297 303 299 301 295 300 303 305 308 310 311 313 314 319 323 324 324 326 327 327 329 331 332 331 332 333 334 334 335 336 336 334 335 338 338 338 337 337 337 336 335 335 334 336 334 335 335 336
302 304 296 298 291 290 296 297 297 305 308 310 313 316 320 323 323 324 325 327 329 330 332 332 331 332 333 334 334 335 335 336 336 336 335 337 336 335 336 335 336 335 334 333 335 335 335 332 334
298 298 300 301 298 293 292 295 305 308 310 312 316 318 322 323 323 324 325 327 329 331 331 330 331 331 332 333 335 335 336 336 334 335 336 336 336 336 335 334 334 334 333 334 334 334 333 333 334
302 300 301 295 294 297 297 295 308 312 314 316 316 319 322 323 323 324 325 327 327 329 329 328 330 330 332 332 334 334 335 335 334 334 335 336 335 335 335 334 333 333 333 334 333 331 332 332 331
Wind_Speed
12 11 5 6 8 6 9 7 5 7 7 0 2 6 5 9 7 7 5 11 9 18 19 22 21 20 19 18 17 16 15 14 14 13 12 11 10 9 8 8 7 6 5 4 4 4 4 4 5
10 9 6 3 9 10 11 6 10 1 4 5 7 10 10 12 5 4 7 14 12 18 17 21 22 21 19 18 17 16 15 14 13 12 12 11 11 11 10 10 10 9 8 8 6 6 5 6 6
13 7 7 6 9 11 4 10 4 2 3 4 4 4 3 3 3 3 6 17 14 17 17 19 23 21 19 18 16 15 14 14 14 13 12 12 11 11 11 12 12 12 11 11 10 9 9 8 7
9 6 6 10 12 9 9 7 2 6 6 3 3 6 4 4 0 1 8 17 14 17 18 17 22 20 19 17 16 15 14 14 14 13 13 13 12 12 12 13 13 14 13 13 12 11 12 10 10
7 5 10 13 15 11 8 10 7 9 3 4 2 2 4 4 2 2 8 14 14 15 17 17 20 20 19 19 17 16 15 14 13 13 13 13 12 12 13 14 14 15 16 15 15 13 13 11 10
9 6 10 13 15 9 11 11 10 12 7 2 5 6 3 5 1 3 7 13 12 13 16 14 19 19 18 18 17 17 15 14 13 13 13 12 12 12 12 13 13 13 15 16 16 15 12 11 9
16 9 14 15 13 11 13 6 10 13 6 5 6 9 1 4 7 2 7 12 12 11 14 13 16 18 17 17 17 16 15 14 13 13 12 12 13 12 11 11 11 12 12 13 13 13 13 11 11
9 10 17 13 14 14 4 8 3 7 4 3 4 7 5 9 5 3 7 11 13 13 14 14 14 18 18 16 16 16 15 13 13 13 12 12 12 11 10 8 12 11 9 11 12 13 14 12 11
12 11 13 20 14 12 6 9 2 2 10 10 10 11 8 7 5 8 7 11 13 14 15 15 16 15 16 16 14 14 14 13 11 13 14 10 11 11 12 11 5 7 9 11 12 12 13 12 11
14 15 21 20 13 14 7 9 7 9 11 16 16 12 8 10 10 13 12 10 15 18 16 16 15 15 15 12 12 13 12 11 11 11 9 9 10 9 7 8 5 9 11 12 13 12 11 11 10
21 23 19 22 18 12 15 18 15 16 15 19 17 16 17 17 17 14 15 15 15 18 15 16 15 14 15 12 9 7 6 6 7 9 8 8 7 7 8 7 7 8 12 8 11 11 11 11 4
29 25 24 23 23 19 19 21 21 18 19 24 21 16 21 23 17 18 17 17 16 16 17 17 17 14 14 9 9 9 7 7 6 7 8 7 6 8 8 7 6 5 7 6 6 6 6 7 9
31 27 23 24 26 20 20 24 28 25 22 24 22 20 21 20 22 22 20 18 14 15 17 18 17 16 14 13 10 9 8 7 7 6 7 7 8 7 8 7 8 8 8 8 7 7 7 8 9
25 28 27 26 25 21 23 26 27 23 23 25 22 22 21 22 22 23 21 18 15 14 16 16 18 17 16 14 12 9 7 7 7 6 6 7 8 7 8 8 10 10 9 8 7 7 7 8 8
25 26 24 22 25 25 22 26 28 20 25 23 20 19 21 21 23 21 19 18 16 12 13 17 19 18 17 16 13 9 7 7 7 6 7 8 9 9 10 8 9 8 9 11 8 9 8 8 8
21 26 24 23 22 23 18 30 22 19 21 19 18 19 21 24 23 20 18 17 15 12 15 17 17 19 18 15 12 8 7 7 6 6 6 8 10 11 9 7 7 7 7 9 8 8 8 7 7
24 24 31 25 22 19 20 29 21 16 16 15 19 20 21 21 21 18 16 14 13 11 14 17 18 19 18 14 10 8 7 7 6 6 6 8 9 10 9 7 7 6 7 7 7 7 7 6 5
22 26 27 26 20 16 27 28 20 18 21 20 19 20 22 21 21 16 15 11 8 9 13 15 14 16 16 12 9 7 7 7 6 6 7 7 8 9 8 6 7 5 5 6 7 8 7 6 5
25 29 25 23 18 22 24 24 23 18 20 23 21 21 22 20 17 13 7 4 5 9 12 14 16 16 13 10 9 8 7 6 5 5 7 8 8 9 7 6 5 6 7 8 9 7 7 5 6
29 30 28 24 22 24 21 27 26 22 22 22 22 19 20 16 14 10 3 4 7 10 12 15 16 17 12 8 6 4 4 3 4 4 4 7 8 8 7 6 7 8 7 8 7 8 5 5 7
32 31 27 30 21 22 22 27 29 24 27 18 16 21 22 16 15 7 6 7 10 12 14 16 17 16 11 9 6 5 3 4 5 5 6 6 6 6 6 7 7 5 5 6 7 6 8 7 7
33 27 26 25 23 25 21 25 24 21 19 21 21 20 16 11 5 4 8 10 11 12 14 16 15 14 11 9 7 5 3 4 1 3 2 4 6 6 6 5 6 7 5 6 6 7 5 6 8
31 19 23 22 22 25 28 22 20 21 22 24 18 20 13 3 4 7 8 11 13 15 15 15 14 12 11 9 5 5 4 3 3 3 4 6 4 6 7 6 5 6 5 6 5 5 6 4 4
20 17 19 19 17 23 23 24 20 20 27 24 18 17 9 8 8 9 11 14 16 16 15 14 13 11 10 8 6 3 4 4 4 3 4 3 4 5 7 7 6 6 6 7 6 5 6 4 5
25 22 11 13 16 19 19 19 16 16 13 12 10 10 11 9 11 13 16 16 18 17 16 13 13 11 10 8 6 5 5 4 4 5 2 1 3 5 6 6 6 5 6 6 6 6 6 5 5
31 26 12 18 15 16 18 13 17 12 21 23 21 12 9 10 12 15 16 17 18 17 15 13 12 11 10 8 6 6 5 3 2 2 2 3 3 3 5 6 6 6 7 7 7 5 5 4 5
27 30 24 13 12 8 14 17 14 19 21 15 12 15 11 11 13 16 18 17 17 16 15 13 11 11 10 7 6 5 4 2 2 0 2 3 3 4 6 6 6 6 6 7 7 5 4 4 4
26 23 23 16 20 16 12 12 10 8 11 13 14 14 14 13 16 17 17 18 16 15 13 12 11 11 10 8 6 5 4 2 2 2 3 2 3 4 7 7 6 7 7 7 7 5 5 4 5
23 22 21 16 14 16 11 8 9 13 9 11 12 14 14 16 18 18 18 17 16 15 14 11 11 11 10 7 6 5 3 3 4 3 2 4 3 5 7 7 7 8 9 8 6 5 6 7 6
28 21 27 13 21 12 9 4 2 6 1 9 11 11 14 17 18 18 19 18 17 15 14 12 11 11 10 8 6 5 3 2 4 4 4 3 4 5 6 6 7 7 8 7 7 7 5 5 6
Wind_Direction
158 175 191 215 231 242 241 199 270 211 204 167 309 244 259 291 311 343 113 162 166 161 164 175 176 178 182 183 184 185 187 187 192 194 198 202 202 205 209 217 236 256 258 251 246 242 239 241 252
166 181 220 222 253 220 196 185 200 170 356 295 257 248 247 265 286 274 189 173 168 161 170 182 180 182 184 188 188 188 191 193 200 204 209 216 219 220 222 221 230 240 258 265 259 252 250 247 245
175 225 248 232 236 253 220 177 142 210 250 254 234 270 317 252 205 304 61 159 164 169 175 186 177 184 186 190 190 193 197 200 206 215 223 229 235 239 241 239 237 239 244 250 259 256 237 242 243
180 197 231 248 236 238 269 162 156 261 169 217 303 249 184 295 348 169 137 164 169 179 181 174 177 186 188 189 193 196 202 206 213 221 231 236 241 243 242 248 253 249 249 257 253 257 262 254 247
223 244 245 237 249 253 234 268 290 260 259 253 208 253 274 134 206 176 168 178 183 182 186 177 179 189 187 189 193 198 203 209 215 224 235 242 246 251 250 253 255 259 255 254 251 252 258 261 256
203 266 240 242 240 221 247 257 252 245 223 178 217 268 245 76 236 183 197 198 200 184 185 187 181 191 190 192 194 199 203 209 216 225 236 246 256 263 258 257 264 261 257 264 256 256 255 260 270
252 215 250 266 275 256 254 272 232 231 225 189 330 259 348 74 23 228 204 204 206 196 195 192 186 192 195 197 197 201 204 208 216 226 235 245 256 259 257 261 267 271 274 271 265 262 264 266 261
234 259 255 252 258 259 230 209 215 227 254 4 260 260 273 21 10 267 242 218 205 202 200 201 197 190 200 200 204 205 206 208 216 227 235 245 246 250 246 254 238 247 266 274 275 273 270 269 266
228 236 245 248 255 256 180 235 157 313 276 295 268 277 315 349 320 292 274 238 217 206 206 208 199 197 200 203 199 209 216 219 224 232 234 238 246 248 228 229 284 273 269 268 268 266 266 264 254
212 229 234 248 262 267 287 264 287 269 266 275 274 228 254 276 285 292 281 253 232 224 210 206 214 202 202 201 207 203 216 226 227 233 244 230 247 254 279 299 268 261 263 264 261 254 254 251 248
221 240 239 247 248 261 287 277 282 274 270 274 297 306 290 291 289 281 274 281 259 228 212 212 199 208 205 200 193 202 207 219 232 250 247 244 260 247 236 242 234 229 215 252 216 213 221 234 260
240 240 244 256 253 249 266 282 283 270 277 282 291 290 290 292 285 280 272 273 266 252 215 202 200 200 207 200 194 196 207 213 232 233 227 240 239 236 254 255 254 253 256 257 253 257 258 263 257
244 248 256 250 268 266 263 268 270 273 282 279 287 288 279 278 278 276 270 268 262 248 223 204 200 194 194 205 192 204 205 207 238 228 223 245 253 249 252 254 254 253 246 239 236 242 246 248 243
248 249 248 258 253 257 257 264 269 271 276 278 281 284 284 285 280 275 267 264 257 238 222 201 197 194 185 197 194 192 204 218 227 237 236 227 250 246 258 250 248 249 246 248 259 241 240 235 255
258 257 257 246 253 254 261 261 260 265 266 272 284 284 283 284 280 279 272 263 261 240 210 197 197 192 184 190 188 195 198 221 229 238 232 238 239 241 256 256 253 255 247 248 241 251 232 249 241
242 239 247 231 226 239 242 261 263 269 269 279 279 286 291 287 281 279 270 268 264 237 200 193 194 186 183 179 184 191 201 219 230 236 240 234 239 246 252 249 247 238 240 242 230 235 241 243 238
223 234 229 242 231 242 221 260 255 263 271 271 284 292 292 286 282 277 277 264 260 226 190 193 194 183 178 171 175 189 197 223 230 236 243 235 241 246 252 252 248 233 230 229 229 228 229 235 237
222 226 247 258 228 212 245 249 253 256 269 276 284 290 286 283 278 286 283 289 255 197 190 194 182 177 174 161 169 190 203 223 230 233 243 245 242 252 247 244 251 232 224 223 227 224 230 233 216
248 245 239 240 242 252 261 260 260 263 272 279 289 286 287 279 283 281 305 275 180 180 182 178 173 164 167 167 179 195 209 208 226 238 242 241 247 251 260 257 240 220 224 226 223 232 229 219 208
237 245 247 253 241 251 248 267 269 261 271 279 275 280 278 289 281 269 240 182 170 165 169 164 161 164 170 167 189 206 208 218 272 261 238 240 244 260 254 232 224 212 220 224 224 222 199 193 190
227 235 241 252 262 247 259 266 268 263 256 271 262 264 275 270 278 264 186 167 160 160 160 162 161 161 164 157 160 169 168 225 226 211 219 210 235 239 220 210 224 211 226 224 220 197 209 191 185
231 222 244 257 254 251 246 269 264 275 273 261 266 269 256 255 227 185 169 154 156 154 158 154 154 156 155 170 170 190 271 280 57 249 235 233 222 212 200 211 217 219 211 213 196 191 201 200 183
236 230 237 239 248 258 247 259 267 261 264 260 260 264 239 233 214 174 162 150 149 149 150 150 149 157 151 167 185 189 239 160 202 231 236 235 224 211 207 213 217 209 196 197 187 183 204 197 161
223 221 229 235 241 241 246 254 256 263 261 265 257 249 179 168 147 143 140 146 143 147 148 147 151 153 160 169 169 190 163 219 256 246 259 269 206 207 207 204 209 197 185 188 195 182 199 174 181
201 189 194 215 220 242 241 247 251 267 241 259 250 244 153 154 146 145 150 150 148 150 151 150 156 160 163 167 159 161 184 208 239 276 259 285 243 213 178 200 202 184 187 179 189 192 197 195 192
195 193 205 215 225 239 222 247 232 242 251 247 250 242 142 162 147 150 153 151 150 153 155 154 163 162 165 163 152 178 180 215 253 244 327 197 202 203 185 188 183 181 173 174 189 192 198 162 156
193 212 211 255 229 282 207 228 274 257 254 244 232 213 178 162 151 151 151 154 153 157 157 158 165 159 162 157 168 180 176 233 21 240 241 163 175 160 170 171 160 157 166 175 176 199 174 159 138
198 194 202 221 234 225 247 230 239 196 228 229 222 200 174 157 154 154 156 156 156 158 154 160 164 161 161 155 174 172 154 174 163 179 197 139 136 162 160 157 152 150 155 172 187 174 159 155 166
198 197 214 212 230 212 230 226 214 243 239 215 193 171 159 163 158 158 157 159 157 159 156 160 168 163 158 165 165 158 134 154 167 149 166 131 158 161 162 156 152 153 153 159 166 185 168 177 169
200 208 197 203 198 258 219 212 1 289 35 222 200 150 157 162 157 159 159 161 159 163 157 164 168 165 162 167 160 138 127 144 163 151 123 132 145 129 156 154 145 149 145 148 160 167 160 160 143